Dewpoint
53 47 48 39 26 22 20 18 20 19 21 45 45 46 50 53 53 51 61 61 62 67 69 68 70 70 71 70 70 69 69 69 70 70 70 70 69 68 68 67 66 65 64 64 63 64 64 64 64
46 38 39 33 19 17 17 19 20 26 43 47 49 50 51 49 53 61 60 61 61 62 67 69 69 69 70 70 69 69 69 69 70 70 70 70 70 68 67 67 66 65 64 63 63 64 63 62 64
44 37 29 27 19 16 16 18 26 41 46 43 50 55 53 51 55 58 60 62 62 61 64 65 64 67 70 70 69 68 68 68 69 69 70 70 69 68 68 66 65 65 64 62 63 62 61 62 64
39 33 30 21 17 19 19 24 35 36 45 46 53 49 54 58 60 64 62 64 66 64 62 64 64 67 70 69 69 68 67 68 68 68 69 70 69 68 67 66 66 65 64 61 61 60 61 62 64
38 28 21 21 20 20 29 35 36 44 48 47 45 41 51 56 62 64 65 65 66 65 64 64 66 66 69 69 68 68 68 68 68 68 68 69 69 68 67 66 65 65 64 61 60 60 62 62 63
30 27 22 21 21 20 31 36 38 44 47 47 46 46 48 61 61 62 64 65 65 65 66 67 68 68 68 68 67 67 68 68 68 69 69 69 69 68 67 66 66 66 65 64 62 62 62 61 62
25 22 20 19 18 15 33 40 43 45 44 47 50 47 52 59 61 62 64 65 66 66 66 67 66 67 65 64 65 67 68 68 68 68 68 68 68 68 67 67 66 65 64 63 62 62 61 61 60
25 23 19 17 14 16 37 44 44 45 46 52 55 53 51 58 62 63 64 64 65 64 65 64 65 66 64 62 62 66 67 67 67 67 67 67 67 67 67 66 65 65 64 63 61 61 61 60 59
22 19 16 15 15 21 40 41 44 48 51 52 55 56 59 61 62 61 61 62 63 63 63 63 64 63 63 63 62 63 66 66 66 65 65 64 64 65 63 64 65 64 63 62 61 60 59 56 58
21 17 17 17 20 33 41 39 43 41 45 49 54 58 60 59 59 59 59 59 60 61 61 62 61 61 61 61 61 64 64 62 61 59 58 60 61 62 63 64 64 63 62 61 60 59 57 53 46
20 18 18 17 21 33 41 43 46 43 48 50 49 55 57 57 58 58 58 57 59 60 61 61 61 60 59 59 60 63 63 60 58 56 59 60 61 61 60 60 60 60 61 57 56 52 50 49 46
16 17 18 16 25 36 41 46 49 48 50 53 53 56 57 56 56 57 56 56 57 58 61 61 60 61 59 58 57 62 61 58 58 57 59 58 57 56 57 57 57 55 54 53 51 51 49 46 44
22 20 21 21 35 46 46 48 49 52 54 55 55 56 55 54 54 55 56 56 56 55 59 60 60 61 61 59 61 61 60 59 60 58 58 57 55 55 56 54 53 52 52 50 52 50 47 44 40
28 27 24 20 25 42 43 45 43 51 54 54 54 53 53 53 53 54 54 54 54 54 56 58 59 60 59 58 59 59 59 61 60 58 57 56 55 55 55 54 53 53 53 51 51 49 46 44 38
28 23 23 22 21 37 40 37 39 52 53 53 54 53 53 53 53 53 53 53 53 54 55 55 56 56 57 57 57 57 56 53 57 58 58 57 56 56 56 56 55 54 55 53 51 50 48 45 39
24 25 20 21 24 38 34 32 39 50 48 52 51 52 52 52 51 52 53 53 53 53 55 56 56 55 56 56 56 56 55 53 48 50 56 57 57 59 58 57 57 56 55 53 51 49 44 43 39
26 20 21 21 26 35 33 33 38 43 48 49 50 51 51 51 51 51 52 52 53 53 54 55 55 55 55 55 55 53 52 51 48 47 50 56 56 59 59 58 58 55 53 52 50 48 46 43 40
21 21 26 21 29 36 35 33 39 42 45 45 46 51 52 51 49 50 51 52 52 52 53 54 55 54 54 53 52 51 52 51 50 48 50 52 56 57 59 59 58 55 52 52 50 48 46 42 40
24 23 21 20 28 35 35 34 35 43 45 43 45 49 51 51 49 50 51 51 51 52 52 52 53 52 51 50 49 49 49 50 49 49 53 55 57 59 59 58 58 55 53 52 51 46 41 40 41
23 22 22 20 28 31 32 35 38 39 43 42 44 49 51 50 48 49 50 50 51 51 52 51 51 50 49 48 47 48 48 49 48 48 52 56 56 57 59 59 58 55 53 51 50 45 42 39 42
23 22 21 17 25 27 30 29 35 39 42 43 43 46 50 51 49 48 49 49 50 50 51 51 50 48 49 48 47 47 48 48 47 47 52 56 56 55 59 59 57 55 54 52 52 46 43 43 45
21 25 21 24 24 21 22 19 34 37 39 43 41 43 46 51 50 48 48 48 48 49 50 50 49 49 49 50 48 47 47 47 48 49 52 56 57 58 59 59 57 56 55 53 52 48 45 45 44
24 28 24 24 23 23 23 21 25 35 40 42 39 39 43 50 51 48 47 48 48 48 48 49 49 48 48 49 50 50 52 53 52 52 54 57 58 59 59 58 57 56 57 55 51 49 48 48 48
26 28 28 28 27 23 26 24 24 38 38 41 42 37 38 44 51 50 47 48 48 48 47 47 48 48 48 49 51 53 54 52 52 53 54 55 58 59 58 58 58 57 57 55 52 50 49 49 47
24 26 23 22 23 23 32 30 29 28 38 39 41 41 39 40 46 51 48 48 49 49 46 47 47 48 48 49 51 53 55 54 52 52 53 55 57 57 58 57 57 56 54 53 52 51 49 49 48
24 24 24 20 24 24 32 26 27 31 34 31 40 41 42 41 43 47 49 49 51 50 49 47 48 50 49 50 52 54 54 56 55 53 55 56 56 56 58 57 55 54 54 52 50 50 50 48 48
24 23 26 32 35 30 29 32 30 29 27 26 33 37 41 42 43 47 47 49 50 50 49 48 47 50 50 51 53 54 55 56 55 56 56 57 57 56 55 56 54 53 53 51 48 49 48 48 47
24 28 27 32 26 23 28 31 29 30 25 26 24 34 40 41 42 47 47 48 50 51 50 50 49 48 49 51 52 53 54 55 56 56 56 57 57 55 54 54 53 52 51 50 48 48 48 47 46
25 24 29 32 31 26 25 25 29 30 30 29 26 25 29 39 41 42 47 48 49 50 50 51 52 52 52 54 53 54 55 56 58 57 57 57 56 55 54 53 52 51 50 49 47 47 46 45 43
25 25 27 29 28 30 28 26 30 31 31 30 28 26 30 35 38 41 42 46 49 50 50 50 52 53 53 54 55 55 58 58 58 58 58 57 56 54 54 52 50 50 48 48 46 46 45 43 43
Lifted_Index
9 9 8 7 6 4 2 2 1 -0 -1 -2 -2 -3 -3 -4 -5 -5 -4 -4 -5 -6 -5 -5 -4 -4 -4 -4 -3 -4 -4 -3 -3 -3 -4 -3 -3 -2 -1 -0 1 2 2 3 3 3 3 3 2
10 9 8 7 6 4 2 2 1 -0 -2 -2 -3 -3 -3 -3 -4 -5 -4 -4 -4 -5 -5 -4 -4 -4 -4 -4 -4 -4 -4 -3 -3 -3 -3 -3 -3 -2 -1 -0 1 1 2 2 3 3 3 3 3
9 9 8 6 5 3 2 1 0 -1 -2 -3 -3 -3 -3 -2 -3 -4 -4 -4 -4 -4 -3 -3 -2 -2 -3 -4 -4 -4 -3 -3 -3 -3 -4 -4 -3 -2 -1 -0 0 1 2 2 3 3 3 3 3
8 8 7 5 4 3 2 1 -1 -2 -2 -3 -3 -3 -2 -2 -3 -4 -4 -4 -4 -3 -2 -2 -1 -1 -3 -3 -4 -3 -3 -4 -4 -3 -4 -4 -3 -2 -1 -1 0 1 2 3 3 4 4 3 2
7 7 6 4 3 2 2 0 -2 -3 -3 -2 -2 -1 -1 -2 -3 -4 -4 -5 -5 -3 -3 -2 -1 -1 -2 -3 -3 -3 -3 -4 -4 -4 -4 -4 -3 -2 -1 -1 0 1 2 3 3 4 4 3 2
7 6 5 4 3 2 1 -1 -2 -3 -2 -2 -1 -0 -1 -2 -3 -4 -4 -5 -5 -4 -3 -3 -2 -1 -1 -1 -2 -3 -4 -4 -4 -4 -4 -4 -3 -2 -1 -1 -0 1 1 2 3 4 5 4 3
6 5 4 4 3 1 0 -1 -2 -2 -2 -2 -1 -1 -1 -2 -3 -4 -4 -5 -4 -4 -4 -3 -2 -1 -0 1 -0 -2 -3 -3 -4 -4 -4 -3 -3 -2 -1 -1 0 1 2 3 4 5 5 5 4
6 5 4 4 3 1 -0 -1 -1 -1 -2 -2 -2 -2 -2 -2 -3 -4 -4 -4 -4 -4 -3 -2 -1 -0 1 2 2 -0 -2 -2 -2 -3 -3 -3 -2 -2 -1 -0 0 1 2 4 4 5 5 5 5
6 5 4 4 3 1 -0 -1 -0 -0 -1 -2 -2 -2 -2 -2 -3 -3 -3 -3 -3 -3 -3 -2 -1 0 1 2 3 1 -1 -1 -1 -2 -2 -1 -1 -1 -0 0 1 2 3 4 5 5 5 5 5
5 5 4 4 3 1 -0 -0 -0 0 -0 -1 -1 -1 -2 -2 -3 -3 -3 -3 -3 -3 -2 -2 -1 0 2 2 3 2 0 0 1 0 0 0 1 1 1 1 2 3 4 5 5 5 5 6 6
5 5 4 4 3 1 0 -1 -1 -0 -0 -0 -0 -0 -1 -1 -1 -2 -2 -2 -2 -2 -2 -2 -1 0 2 3 3 1 1 2 2 2 2 2 2 3 3 3 3 4 4 5 5 4 4 5 6
5 5 4 3 2 1 -0 -1 -1 -1 -0 -0 -0 -0 0 1 0 -0 -1 -2 -2 -2 -2 -1 -1 -0 1 2 2 1 1 2 3 3 3 4 4 4 4 4 4 4 4 4 4 3 3 5 6
5 5 4 3 2 1 -0 -1 -1 -1 -1 -1 -0 -0 1 1 2 1 -0 -1 -1 -1 -1 -1 -1 0 1 2 2 2 2 2 3 3 3 4 5 5 5 5 5 4 3 3 3 2 3 4 6
5 4 3 3 2 1 0 -0 -1 -1 -1 -1 -1 -0 1 2 2 2 1 -0 -0 -0 -0 -1 -0 1 2 2 2 2 3 3 3 3 3 4 5 6 5 5 4 3 2 2 2 2 3 5 6
5 4 3 3 2 1 1 0 -0 -1 -2 -1 -1 -1 1 2 2 2 1 1 1 1 1 0 0 1 2 3 3 3 3 3 3 3 3 4 5 5 4 4 2 2 1 1 1 2 3 4 5
5 4 3 2 2 1 0 0 -0 -1 -1 -1 -1 -1 0 1 2 2 1 1 1 1 2 2 2 2 3 4 4 4 3 3 3 3 3 4 3 3 3 2 1 1 1 1 1 2 2 3 4
5 4 3 2 1 1 0 0 0 -0 -0 -1 -1 -1 -0 1 1 2 2 2 2 2 3 3 3 4 4 5 4 4 4 4 4 4 4 4 3 2 1 0 0 0 1 1 1 1 2 3 3
4 4 3 3 1 0 -0 0 0 0 0 -0 -1 -1 0 1 1 2 2 2 3 3 3 4 4 4 5 5 5 5 5 6 6 6 6 5 3 2 0 -0 -0 0 0 1 1 1 1 2 3
4 4 3 3 2 0 -0 -0 0 0 0 -1 -1 -0 0 0 1 2 3 3 3 4 4 4 4 4 4 5 5 5 6 6 6 6 6 5 3 2 -0 -1 -0 0 0 0 0 1 1 2 3
4 4 4 3 2 0 -0 -0 0 0 -0 -1 -1 -0 -0 0 1 2 3 4 4 4 4 4 4 4 4 5 5 5 6 5 5 5 5 4 3 2 0 -0 -0 -0 -0 -0 -0 0 1 2 3
4 4 3 3 2 1 0 0 0 0 -0 -1 -1 -1 -0 -0 1 2 3 4 4 4 4 4 4 5 5 5 5 6 6 5 5 5 4 3 2 1 1 -0 -0 -0 -0 -0 -0 -0 1 2 2
3 3 3 3 3 2 1 1 1 1 0 -0 -1 -1 -1 -0 0 1 3 4 4 5 4 4 5 5 5 5 6 6 5 5 5 5 3 2 1 1 0 -0 -1 -1 -0 -0 -0 -0 0 1 2
3 3 3 3 3 3 2 1 1 1 -0 -1 -1 -1 -1 -1 -0 1 2 3 4 5 4 4 4 5 5 5 5 5 4 4 4 3 2 2 1 0 -0 -1 -1 -1 -0 -0 -0 -0 0 1 1
3 3 2 3 3 2 2 2 1 0 -1 -1 -1 -1 -1 -1 -1 -0 1 2 3 4 4 4 4 4 4 4 4 3 3 3 2 2 2 2 1 0 -0 -1 -1 -1 -0 -0 -0 -0 0 1 1
3 2 2 2 2 2 2 2 2 1 -0 -1 -1 -1 -1 -1 -1 -1 -0 0 1 3 4 4 4 4 4 3 3 3 2 2 2 2 2 2 1 0 -0 -1 -1 -1 -0 -0 -0 -0 0 1 1
2 2 2 1 1 1 2 2 2 1 0 0 -0 -1 -1 -1 -1 -1 -0 -0 -0 1 2 3 4 4 4 3 2 2 1 1 1 1 1 1 1 0 -0 -1 -1 -1 -1 -1 -0 -0 0 1 1
2 2 2 1 1 1 2 2 1 1 1 1 1 -0 -1 -1 -1 -1 -1 -1 -1 -1 -0 1 2 2 3 3 2 1 1 0 -0 -1 -1 -0 -0 -1 -1 -1 -1 -1 -1 -1 -0 -0 0 1 2
2 2 1 1 1 1 1 1 1 1 1 1 1 1 -0 -1 -1 -1 -1 -1 -1 -1 -1 -1 -0 0 1 1 1 1 0 -0 -1 -1 -1 -1 -1 -1 -1 -1 -1 -1 -1 -1 -0 0 1 1 2
2 2 1 1 1 1 1 1 1 0 1 1 1 1 0 -0 -1 -1 -1 -1 -1 -1 -1 -1 -1 -1 -1 -1 -0 -0 -0 -1 -1 -1 -1 -2 -2 -2 -2 -2 -2 -1 -1 -1 -0 0 1 2 2
1 2 1 1 1 2 1 1 1 0 0 1 1 1 0 -0 -1 -1 -1 -1 -1 -1 -1 -1 -2 -2 -2 -2 -2 -1 -1 -1 -1 -1 -1 -1 -2 -2 -2 -2 -2 -2 -1 -1 0 1 1 2 2